Observations for Trim Market St
| Time | AQI | Temp °C | Hum % | Pres Pa | CO μg/m³ | H₂S μg/m³ | NO μg/m³ | NO₂ μg/m³ | O₃ μg/m³ | SO₂ μg/m³ | PM1 μg/m³ | PM2.5 μg/m³ | PM10 μg/m³ |
|---|---|---|---|---|---|---|---|---|---|---|---|---|---|
| Friday 21 August 2026 | |||||||||||||
| 16:52 | 3 | 20.9 | 52 | 57,624 | 0 | 8.77 | 1.32 | 41.12 | 62.7 | 0 | 0 | 1.88 | 2.06 |
| 16:51 | 3 | 21.1 | 51 | 57,526 | 0 | 8.42 | 1.36 | 40.61 | 60.88 | 0 | 0 | 1.89 | 2.08 |
| 16:49 | 3 | 21.4 | 50 | 57,385 | 0 | 8.69 | 1.39 | 36.45 | 67.67 | 0 | 0 | 1.93 | 2.12 |
| 16:48 | 3 | 21.5 | 50 | 57,347 | 0 | 8.53 | 1.44 | 38.82 | 67.28 | 0 | 0 | 1.94 | 2.14 |
| 16:47 | 3 | 21.6 | 50 | 57,384 | 0 | 7.18 | 1.5 | 32.94 | 61.13 | 0 | 0 | 1.96 | 2.15 |
| 16:39 | 3 | 22.6 | 46 | 63,864 | 0 | 5.27 | 1.7 | 29.78 | 98.27 | 0 | 0 | 2.12 | 2.33 |
| 16:38 | 3 | 22.7 | 45 | 64,550 | 0 | 0 | 1.74 | 26.67 | 62.5 | 0 | 0 | 2.14 | 2.36 |
| 16:37 | 3 | 22.8 | 45 | 64,787 | 0 | 0 | 1.68 | 22.12 | 62.95 | 0 | 0 | 2.67 | 2.87 |
| 16:31 | 3 | 23.2 | 44 | 65,137 | 0.07 | 0 | 2.95 | 43.66 | 59.48 | 0 | 0 | 2.18 | 2.4 |
| 16:28 | 3 | 23.4 | 44 | 65,172 | 0.27 | 0 | 15.44 | 72.18 | 47.59 | 0 | 0 | 2.19 | 2.41 |
| 16:27 | 3 | 23.5 | 44 | 65,164 | 0.36 | 0 | 8.9 | 63.69 | 57.77 | 0 | 0 | 2.19 | 2.41 |
| 16:26 | 3 | 23.6 | 44 | 65,151 | 0.79 | 0 | 3.22 | 109.84 | 30.57 | 0 | 0 | 3.24 | 3.56 |
| 16:25 | 3 | 23.7 | 44 | 65,135 | 0.43 | 0 | 1.6 | 62.39 | 58.84 | 0 | 0 | 2.71 | 2.99 |
| 16:24 | 3 | 23.8 | 44 | 65,111 | 0.24 | 0 | 1.67 | 36.92 | 61.7 | 0 | 0 | 2.19 | 2.41 |
| 16:23 | 3 | 23.8 | 44 | 65,078 | 0.23 | 0 | 1.59 | 25.27 | 60.99 | 0 | 0.71 | 2.71 | 2.98 |
| 16:22 | 3 | 23.9 | 44 | 65,038 | 0.15 | 0 | 1.68 | 26.39 | 64.5 | 0 | 0 | 2.18 | 2.4 |
| 16:21 | 3 | 23.9 | 44 | 64,983 | 0.18 | 0 | 1.62 | 15.71 | 63.29 | 0 | 0 | 2.17 | 2.39 |
| 16:20 | 3 | 23.9 | 45 | 64,933 | 0.25 | 0 | 1.67 | 20.32 | 60.39 | 0 | 0 | 2.16 | 2.38 |
| 16:19 | 3 | 23.9 | 45 | 64,815 | 0.57 | 0 | 1.78 | 70.24 | 50.97 | 0 | 0 | 2.15 | 2.37 |
| 16:18 | 3 | 24 | 45 | 64,748 | 0.56 | 0 | 1.83 | 72.2 | 55.63 | 0 | 0.71 | 3.2 | 3.52 |